"Period start","avg(HW err(1)/warn(2) (#))","avg(Visibility (m))","avg(Weather code (#))","avg(Precip intensity (mm/h))","min(HW err(1)/warn(2) (#))","max(HW err(1)/warn(2) (#))","std(HW err(1)/warn(2) (#))","med(HW err(1)/warn(2) (#))","min(Visibility (m))","max(Visibility (m))","std(Visibility (m))","med(Visibility (m))","min(Weather code (#))","max(Weather code (#))","std(Weather code (#))","med(Weather code (#))","min(Precip intensity (mm/h))","max(Precip intensity (mm/h))","std(Precip intensity (mm/h))","med(Precip intensity (mm/h))"
2013-07-08 00:00:00,2,3550,56,0.95,2,2,0,2,1413,5445,1643,3511,51,67,7,51,0.05,2.65,0.93,0.52
2013-07-08 00:10:00,2,2708,66,3.91,2,2,0,2,1020,4762,1458,2552,61,67,2,67,0.75,9.20,2.72,3.30
2013-07-08 00:20:00,2,3256,63,1.25,2,2,0,2,2489,4104,650,3194,61,67,3,61,0.40,2.00,0.58,1.25
2013-07-08 00:30:00,2,2862,67,2.67,2,2,0,2,2142,4215,672,2519,67,67,0,67,1.05,4.95,1.30,2.62
2013-07-08 00:40:00,2,2134,68,1.61,2,2,0,2,1805,2610,242,2154,67,71,2,67,0.75,3.35,0.88,1.35
2013-07-08 00:50:00,2,3335,66,4.33,2,2,0,2,2563,4325,652,3158,61,71,3,67,0.95,8.85,2.58,5.38
2013-07-08 01:00:00,2,2965,63,2.83,2,2,0,2,1441,5879,1422,2514,61,67,3,61,1.35,5.45,1.40,2.55
2013-07-08 01:10:00,2,3110,67,8.47,2,2,0,2,2030,4490,791,3170,67,68,0,67,3.20,17.75,4.82,7.20
2013-07-08 01:20:00,2,2906,67,6.00,2,2,0,2,1916,4358,724,2836,67,68,0,67,3.50,12.60,2.47,5.22
2013-07-08 01:30:00,2,2772,67,5.40,2,2,0,2,1880,3977,687,2695,67,68,0,67,2.15,11.30,3.59,2.90
2013-07-08 01:40:00,2,3459,63,8.20,2,2,0,2,1422,5158,1268,3904,62,67,2,62,2.70,14.60,3.67,9.52
2013-07-08 01:50:00,2,1765,68,11.01,2,2,0,2,1135,2552,357,1792,67,71,2,67,3.70,37.90,9.98,6.28
2013-07-08 02:00:00,2,2587,65,10.85,2,2,0,2,1092,3726,818,2750,61,71,3,67,1.80,24.25,6.66,11.40
2013-07-08 02:10:00,2,2190,68,9.79,2,2,0,2,843,3974,1010,2066,62,71,3,67,2.80,18.10,4.83,9.55
2013-07-08 02:20:00,2,2570,67,4.84,2,2,0,2,1663,3569,691,2524,62,71,3,67,1.80,8.95,2.02,4.12
2013-07-08 02:30:00,2,4422,67,3.65,2,2,0,2,2762,7033,1512,3749,67,71,1,67,0.50,8.00,2.19,3.32
2013-07-08 02:40:00,2,5920,66,2.94,2,2,0,2,3240,9099,1889,5333,61,71,4,67,1.25,7.55,1.88,2.35
2013-07-08 02:50:00,2,5010,66,4.22,2,2,0,2,1634,8630,3005,5211,61,67,2,67,2.80,7.80,1.43,3.80
2013-07-08 03:00:00,2,11808,61,3.88,2,2,0,2,8287,15332,2482,11002,61,61,0,61,0.60,8.00,2.02,3.42
2013-07-08 03:10:00,2,17670,61,1.39,2,2,0,2,10297,31223,6226,15630,61,62,0,61,0.05,10.80,3.16,0.15
2013-07-08 03:20:00,2,8847,61,4.85,2,2,0,2,6296,12248,1767,8736,61,62,0,61,1.05,13.75,3.71,3.90
2013-07-08 03:30:00,2,4277,66,11.02,2,2,0,2,2570,7295,1435,3984,61,68,3,67,4.95,18.00,4.01,9.27
2013-07-08 03:40:00,2,4329,66,8.85,2,2,0,2,2646,7002,1623,3789,62,68,2,67,3.00,27.25,6.35,7.60
2013-07-08 03:50:00,2,5430,64,3.81,2,2,0,2,2341,8456,2328,4940,61,67,3,64,1.15,5.85,1.35,3.78
2013-07-08 04:00:00,2,4720,67,2.89,2,2,0,2,2200,11404,3194,2944,67,67,0,67,0.25,6.00,1.61,2.35
2013-07-08 04:10:00,2,9189,18,1.08,2,2,0,2,4534,12269,2761,10326,0,52,23,0,0.00,4.85,1.84,0.00
2013-07-08 04:20:00,2,9928,60,1.39,2,2,0,2,5677,17454,3795,8792,52,61,3,61,0.10,2.80,0.85,1.35
2013-07-08 04:30:00,2,13026,53,1.86,2,2,0,2,8400,18697,3118,12248,52,61,3,52,0.75,3.95,1.04,1.52
2013-07-08 04:40:00,2,14823,61,2.44,2,2,0,2,11764,19254,2383,14296,61,61,0,61,1.25,4.55,0.90,2.28
2013-07-08 04:50:00,2,8952,61,3.68,2,2,0,2,4700,13003,2789,9529,61,61,0,61,0.85,7.90,2.08,3.45
"Period start","avg(HW err(1)/warn(2) (#))","avg(Visibility (m))","avg(Weather code (#))","avg(Precip intensity (mm/h))","min(HW err(1)/warn(2) (#))","max(HW err(1)/warn(2) (#))","std(HW err(1)/warn(2) (#))","med(HW err(1)/warn(2) (#))","min(Visibility (m))","max(Visibility (m))","std(Visibility (m))","med(Visibility (m))","min(Weather code (#))","max(Weather code (#))","std(Weather code (#))","med(Weather code (#))","min(Precip intensity (mm/h))","max(Precip intensity (mm/h))","std(Precip intensity (mm/h))","med(Precip intensity (mm/h))"
2013-07-08 05:40:00,2,25767,58,0.15,2,2,0,2,18644,36417,5917,24622,51,61,5,61,0.00,0.40,0.11,0.12
2013-07-08 05:50:00,2,17954,59,0.10,2,2,0,2,12628,34710,6177,15970,51,61,4,61,0.00,0.20,0.08,0.08
2013-07-08 06:00:00,2,16273,22,0.03,2,2,0,2,11019,21129,3066,16532,0,61,28,0,0.00,0.10,0.04,0.00
2013-07-08 06:10:00,2,14372,0,0.00,2,2,0,2,12549,16879,1555,14477,0,0,0,0,0.00,0.00,0.00,0.00
2013-07-08 06:20:00,2,15142,0,0.00,2,2,0,2,12972,17739,1675,15046,0,0,0,0,0.00,0.00,0.00,0.00
2013-07-08 06:30:00,2,13516,0,0.00,2,2,0,2,10844,17435,2265,12469,0,0,0,0,0.00,0.00,0.00,0.00
2013-07-08 06:40:00,2,11917,0,0.00,2,2,0,2,8274,14854,2234,12273,0,0,0,0,0.00,0.00,0.00,0.00
2013-07-08 06:50:00,2,13997,0,0.00,2,2,0,2,9042,20563,3662,13030,0,0,0,0,0.00,0.00,0.00,0.00
2013-07-08 07:00:00,2,8172,2,0.00,2,2,0,2,5279,11806,2071,7410,0,10,4,0,0.00,0.00,0.00,0.00
2013-07-08 07:10:00,2,3969,10,0.00,2,2,0,2,3418,4938,445,3780,10,10,0,10,0.00,0.00,0.00,0.00
2013-07-08 07:20:00,2,4265,10,0.00,2,2,0,2,3469,5031,458,4242,10,10,0,10,0.00,0.00,0.00,0.00
2013-07-08 07:30:00,2,5480,10,0.00,2,2,0,2,4545,6258,533,5548,10,10,0,10,0.00,0.00,0.00,0.00
2013-07-08 07:40:00,2,3748,10,0.00,2,2,0,2,3262,5124,524,3592,10,10,0,10,0.00,0.00,0.00,0.00
2013-07-08 07:50:00,2,2757,10,0.00,2,2,0,2,2170,3342,365,2705,10,10,0,10,0.00,0.00,0.00,0.00
2013-07-08 08:00:00,2,1835,26,0.07,2,2,0,2,1523,2237,254,1860,10,41,16,26,0.00,0.45,0.13,0.00
2013-07-08 08:10:00,2,1543,41,0.04,2,2,0,2,1337,1726,109,1528,41,41,0,41,0.00,0.05,0.02,0.05
2013-07-08 08:20:00,2,1797,41,0.04,2,2,0,2,1485,2428,260,1718,41,41,0,41,0.00,0.10,0.03,0.05
2013-07-08 08:30:00,2,1986,41,0.04,2,2,0,2,1768,2174,144,2008,41,41,0,41,0.00,0.05,0.02,0.05
2013-07-08 08:40:00,2,1939,41,0.02,2,2,0,2,1574,2404,222,1920,41,41,0,41,0.00,0.05,0.02,0.00
2013-07-08 08:50:00,2,1775,41,0.02,2,2,0,2,1564,2207,184,1712,41,41,0,41,0.00,0.05,0.02,0.00
2013-07-08 09:00:00,2,2026,41,0.04,2,2,0,2,1760,2631,258,1957,41,41,0,41,0.00,0.10,0.04,0.05
2013-07-08 09:10:00,2,1996,41,0.02,2,2,0,2,1834,2297,163,1936,41,41,0,41,0.00,0.05,0.02,0.00
2013-07-08 09:20:00,2,2190,16,0.00,2,2,0,2,2018,2451,131,2158,10,41,12,10,0.00,0.00,0.00,0.00
2013-07-08 09:30:00,2,2606,10,0.00,2,2,0,2,2308,3041,192,2567,10,10,0,10,0.00,0.00,0.00,0.00
2013-07-08 09:40:00,2,3231,10,0.00,2,2,0,2,2726,3917,331,3230,10,10,0,10,0.00,0.00,0.00,0.00
2013-07-08 09:50:00,2,3574,10,0.00,2,2,0,2,2817,4032,333,3648,10,10,0,10,0.00,0.00,0.00,0.00
2013-07-08 10:00:00,2,3616,10,0.00,2,2,0,2,2765,5557,778,3412,10,10,0,10,0.00,0.00,0.00,0.00
2013-07-08 10:10:00,2,7576,10,0.00,2,2,0,2,6021,9562,1010,7663,10,10,0,10,0.00,0.00,0.00,0.00
